Location: Street
(51.1247°N, 2.7429°W)
Time: 01:52:34
(UTC+00:00)

deb Explorer IX - Pass Details

Date: 09 December 2020
Orbit: 536 x 1104 km, 38.8° (Epoch: 20 January)

Event Time Altitude Azimuth Distance (km) Brightness Sun altitude
Rises 14:18:00 0° 245° (WSW) 3,909 ? 10.3°
Reaches altitude 10° 14:21:11 10° 235° (SW) 2,926 ? 10.0°
Maximum altitude 14:27:09 29° 179° (S) 1,798 ? 9.5°
Drops below altitude 10° 14:32:40 10° 122° (ESE) 2,692 ? 9.0°
Sets 14:35:29 0° 111° (ESE) 3,549 ? 8.8°
